TimeMST,TemperatureF,Dew PointF,Humidity,Sea Level PressureIn,VisibilityMPH,Wind Direction,Wind SpeedMPH,Gust SpeedMPH,PrecipitationIn,Events,Conditions,WindDirDegrees,DateUTC
12:53 AM,41.0,19.0,41,30.14,10.0,NNE,3.5,-,N/A,,Clear,20,2013-01-02 07:53:00
1:53 AM,39.9,18.0,41,30.13,10.0,NNE,5.8,-,N/A,,Clear,20,2013-01-02 08:53:00
2:53 AM,39.9,17.1,40,30.12,10.0,North,5.8,-,N/A,,Clear,10,2013-01-02 09:53:00
3:53 AM,39.9,17.1,40,30.11,10.0,North,9.2,-,N/A,,Clear,360,2013-01-02 10:53:00
5:53 AM,42.1,15.1,34,30.09,10.0,North,8.1,-,N/A,,Clear,10,2013-01-02 12:53:00
6:53 AM,37.9,17.1,43,30.11,10.0,Calm,Calm,-,N/A,,Clear,0,2013-01-02 13:53:00
7:53 AM,39.0,16.0,39,30.11,10.0,North,5.8,-,N/A,,Clear,10,2013-01-02 14:53:00
8:53 AM,43.0,17.1,35,30.12,10.0,Calm,Calm,-,N/A,,Clear,0,2013-01-02 15:53:00
9:53 AM,48.9,14.0,25,30.12,10.0,North,8.1,-,N/A,,Clear,350,2013-01-02 16:53:00
10:53 AM,52.0,14.0,22,30.10,10.0,Calm,Calm,-,N/A,,Clear,0,2013-01-02 17:53:00
11:53 AM,57.0,10.0,15,30.07,10.0,East,9.2,-,N/A,,Clear,80,2013-01-02 18:53:00
12:53 PM,59.0,10.0,14,30.03,10.0,ESE,9.2,-,N/A,,Clear,110,2013-01-02 19:53:00
1:53 PM,60.1,10.0,14,29.99,10.0,East,10.4,16.1,N/A,,Clear,90,2013-01-02 20:53:00
2:53 PM,61.0,12.0,15,29.97,10.0,East,9.2,-,N/A,,Clear,90,2013-01-02 21:53:00
3:53 PM,62.1,14.0,15,29.97,10.0,ESE,8.1,-,N/A,,Clear,110,2013-01-02 22:53:00
4:53 PM,60.1,14.0,16,29.98,10.0,East,6.9,-,N/A,,Clear,100,2013-01-02 23:53:00
5:53 PM,55.9,17.1,22,29.98,10.0,SSE,5.8,-,N/A,,Clear,160,2013-01-03 00:53:00
6:53 PM,52.0,19.0,27,30.00,10.0,Calm,Calm,-,N/A,,Clear,0,2013-01-03 01:53:00
7:53 PM,51.1,18.0,27,30.01,10.0,NNE,4.6,-,N/A,,Clear,20,2013-01-03 02:53:00
9:53 PM,45.0,21.0,39,30.02,10.0,Calm,Calm,-,N/A,,Clear,0,2013-01-03 04:53:00
10:53 PM,44.1,19.0,37,30.04,10.0,Calm,Calm,-,N/A,,Clear,0,2013-01-03 05:53:00
11:53 PM,44.1,18.0,35,30.03,10.0,Calm,Calm,-,N/A,,Clear,0,2013-01-03 06:53:00